| time (UTC) | temp F | wind direction | speed MPH | gust MPH | rain 1hr in | rain 24hr in | rain mn in | humidity % | barometer mb |
| 20260504081447 | 94 | 0.0 | 0.0 | 0.00 | 0.00 | 0.00 | 47 | 1002.6 | |
| 20260504080442 | 93 | 0.0 | 0.0 | 0.00 | 0.00 | 0.00 | 48 | 1002.7 | |
| 20260504070413 | 94 | 0.0 | 0.0 | 0.00 | 0.00 | 0.00 | 46 | 1003.7 | |
| 20260504030218 | 96 | 0.0 | 0.0 | 0.00 | 0.00 | 0.00 | 45 | 1004.5 | |
| 20260504024209 | 96 | 0.0 | 0.0 | 0.00 | 0.00 | 0.00 | 45 | 1004.6 | |
| 20260504021154 | 96 | 0.0 | 0.0 | 0.00 | 0.00 | 0.00 | 45 | 1004.3 | |
| 20260504020149 | 96 | 0.0 | 0.0 | 0.00 | 0.00 | 0.00 | 45 | 1004.1 | |
| 20260504015145 | 96 | 0.0 | 0.0 | 0.00 | 0.00 | 0.00 | 45 | 1003.9 | |
| 20260504014140 | 96 | 0.0 | 0.0 | 0.00 | 0.00 | 0.00 | 45 | 1003.9 | |
| 20260504012130 | 96 | 0.0 | 0.0 | 0.00 | 0.00 | 0.00 | 44 | 1003.8 | |
| 20260504011126 | 96 | 0.0 | 0.0 | 0.00 | 0.00 | 0.00 | 44 | 1003.8 | |
| 20260504005116 | 96 | 0.0 | 0.0 | 0.00 | 0.00 | 0.00 | 44 | 1003.9 | |
| 20260504003106 | 96 | 0.0 | 0.0 | 0.00 | 0.00 | 0.00 | 44 | 1003.9 | |
| 20260504002102 | 96 | 0.0 | 0.0 | 0.00 | 0.00 | 0.00 | 44 | 1003.8 | |
| 20260504001057 | 97 | 0.0 | 0.0 | 0.00 | 0.00 | 0.00 | 43 | 1003.7 | |
| 20260504000052 | 97 | 0.0 | 0.0 | 0.00 | 0.00 | 0.00 | 43 | 1003.6 | |
| 20260503235047 | 97 | 0.0 | 0.0 | 0.00 | 0.00 | 0.00 | 43 | 1003.4 | |
| 20260503233038 | 97 | 0.0 | 0.0 | 0.00 | 0.00 | 0.00 | 43 | 1003.2 | |
| 20260503232033 | 97 | 0.0 | 0.0 | 0.00 | 0.00 | 0.00 | 43 | 1003.1 | |
| 20260503231028 | 97 | 0.0 | 0.0 | 0.00 | 0.00 | 0.00 | 42 | 1002.9 | |
| 20260503230023 | 96 | 0.0 | 0.0 | 0.00 | 0.00 | 0.00 | 44 | 1002.7 | |
| 20260503225018 | 97 | 0.0 | 0.0 | 0.00 | 0.00 | 0.00 | 43 | 1002.7 | |
| 20260503224014 | 96 | 0.0 | 0.0 | 0.00 | 0.00 | 0.00 | 44 | 1002.7 | |
| 20260503223009 | 97 | 0.0 | 0.0 | 0.00 | 0.00 | 0.00 | 42 | 1002.6 | |
| 20260503222004 | 96 | 0.0 | 0.0 | 0.00 | 0.00 | 0.00 | 44 | 1002.8 | |
| 20260503220959 | 96 | 0.0 | 0.0 | 0.00 | 0.00 | 0.00 | 43 | 1002.8 | |
| 20260503215955 | 98 | 0.0 | 0.0 | 0.00 | 0.00 | 0.00 | 41 | 1002.8 | |
| 20260503214950 | 97 | 0.0 | 0.0 | 0.00 | 0.00 | 0.00 | 42 | 1002.6 | |
| 20260503213945 | 97 | 0.0 | 0.0 | 0.00 | 0.00 | 0.00 | 42 | 1002.7 | |
| 20260503212940 | 97 | 0.0 | 0.0 | 0.00 | 0.00 | 0.00 | 43 | 1002.7 | |
| 20260503211935 | 97 | 0.0 | 0.0 | 0.00 | 0.00 | 0.00 | 42 | 1002.7 | |
| 20260503210931 | 97 | 0.0 | 0.0 | 0.00 | 0.00 | 0.00 | 42 | 1002.7 | |
| 20260503205926 | 97 | 0.0 | 0.0 | 0.00 | 0.00 | 0.00 | 42 | 1002.8 | |
| 20260503204921 | 96 | 0.0 | 0.0 | 0.00 | 0.00 | 0.00 | 44 | 1002.9 | |
| 20260503203916 | 97 | 0.0 | 0.0 | 0.00 | 0.00 | 0.00 | 42 | 1003.1 | |
| 20260503202912 | 98 | 0.0 | 0.0 | 0.00 | 0.00 | 0.00 | 42 | 1003.1 | |
| 20260503201907 | 98 | 0.0 | 0.0 | 0.00 | 0.00 | 0.00 | 42 | 1003.1 | |
| 20260503200902 | 98 | 0.0 | 0.0 | 0.00 | 0.00 | 0.00 | 42 | 1003.1 | |
| 20260503195857 | 98 | 0.0 | 0.0 | 0.00 | 0.00 | 0.00 | 42 | 1003.1 | |
| 20260503192843 | 97 | 0.0 | 0.0 | 0.00 | 0.00 | 0.00 | 42 | 1003.2 | |
| 20260503191838 | 97 | 0.0 | 0.0 | 0.00 | 0.00 | 0.00 | 42 | 1003.3 | |
| 20260503190833 | 98 | 0.0 | 0.0 | 0.00 | 0.00 | 0.00 | 42 | 1003.5 | |
| 20260503185828 | 98 | 0.0 | 0.0 | 0.00 | 0.00 | 0.00 | 42 | 1003.8 | |
| 20260503184824 | 97 | 0.0 | 0.0 | 0.00 | 0.00 | 0.00 | 42 | 1003.9 | |
| 20260503183819 | 97 | 0.0 | 0.0 | 0.00 | 0.00 | 0.00 | 43 | 1004.1 | |
| 20260503182814 | 97 | 0.0 | 0.0 | 0.00 | 0.00 | 0.00 | 44 | 1004.4 | |
| 20260503181809 | 97 | 0.0 | 0.0 | 0.00 | 0.00 | 0.00 | 45 | 1004.6 | |
| 20260503180805 | 97 | 0.0 | 0.0 | 0.00 | 0.00 | 0.00 | 45 | 1004.7 | |
| 20260503175800 | 96 | 0.0 | 0.0 | 0.00 | 0.00 | 0.00 | 46 | 1004.8 | |
| 20260503174755 | 96 | 0.0 | 0.0 | 0.00 | 0.00 | 0.00 | 46 | 1004.9 | |
| 20260503173750 | 95 | 0.0 | 0.0 | 0.00 | 0.00 | 0.00 | 47 | 1004.9 | |
| 20260503172745 | 95 | 0.0 | 0.0 | 0.00 | 0.00 | 0.00 | 47 | 1004.8 | |
| 20260503171741 | 95 | 0.0 | 0.0 | 0.00 | 0.00 | 0.00 | 47 | 1004.7 | |
| 20260503170736 | 94 | 0.0 | 0.0 | 0.00 | 0.00 | 0.00 | 48 | 1005.1 | |
| 20260503130541 | 91 | 0.0 | 0.0 | 0.00 | 0.00 | 0.00 | 51 | 1005.7 | |
| 20260503110444 | 91 | 0.0 | 0.0 | 0.00 | 0.00 | 0.00 | 50 | 1004.5 | |
| 20260503090346 | 91 | 0.0 | 0.0 | 0.00 | 0.00 | 0.00 | 51 | 1002.3 |